Tracking 27420 objects as of 28-May-2023
HD Live streaming from Space Station
objects crossing your sky now

STARLINK-6044

Track STARLINK-6044 now!
10-day predictions
STARLINK-6044 is classified as:


NORAD ID: 56479
Int'l Code: 2023-064AH
Perigee: 364.0 km
Apogee: 368.6 km
Inclination: 70.0 °
Period: 91.7 minutes
Semi major axis: 6737 km
RCS: Unknown
Launch date: May 10, 2023
Source: United States (US)
Launch site: AIR FORCE WESTERN TEST RANGE (AFWTR)
Your satellite tracking list
Your tracking list is empty




NASA's NSSDC Master Catalog

Two Line Element Set (TLE):
1 56479U 23064AH  23148.58334491  .00014664  00000-0  12357-3 0  9993
2 56479  69.9986 195.0819 0003443 270.2515 252.0913 15.69911757  3184
Source of the keplerian elements: AFSPC